CZ-6A DEB

Satellite information

Favourite Embed

Satellite Type and Status

DEBRISIN ORBIT

Key statistics

Satellite CZ-6A DEB at a glance.

Uptime

909

Days in orbit

Revolutions

≈ 14.2

Per day

Orbit

SSO

Sun Synchronous Orbit

Inclination

98.8

Latest

Satellite identification and parameters

Extended collection of information and parameters for CZ-6A DEB.

Object identification

Identified? True

Debris? True

Object name: CZ-6A DEB

International designator: 2022-151SG

Object number (NORAD): 54943

Object ID (CCSDS): 54943

Country: PEOPLES REPUBLIC OF CHINA (PRC)

Current information (Y/N): Y

RCS size: SMALL

Orbital parameters

Period: 101.108 minutes

Inclination: 98.8126 deg

SMA: 7189.246 km

Apoapsis: 826.266 km

Periapsis: 795.956 km

RAAN: 142.6375 deg

Eccentricy: 0.002108

Argument of periapsis: 13.3205 deg

Mean anomaly: 346.8526 deg

Mean motion: 14.24222288 rev/day

Mean motion (dot): 0.00004398 rev/day2

B* drag term: 0.0019217 1/REarth

Two-line elements (TLE)

Creation date: May 8, 2025, 3:01 a.m.

Reference frame: TEME

Reference center: EARTH

Epoch: May 7, 2025, 11:13 a.m. UTC

TLE line 0: 0 CZ-6A DEB

TLE line 1: 1 54943U 22151SG 25127.46745823 .00004398 00000-0 19217-2 0 9998

TLE line 2: 2 54943 98.8126 142.6375 0021080 13.3205 346.8526 14.24222288128037

Live tracking on map

Real-time ground track for satellite CZ-6A DEB.

In-orbit conjunctions

A list of the most updated potential collisions computed for object CZ-6A DEB.

Target Orbit TCA Probability of collision Miss distance Type
CZ-6A DEB LEO 2025-02-03 06:48:47 0.0001576683 611.0 (m) DEBRIS
COSMOS 1275 DEB LEO 2024-12-16 00:09:03 0.0001492914 163.0 (m) DEBRIS

Associated space launch

Chinese satellite reported for atmospheric/ocean/environmental/spatial parameter research purposes, details TBD.

CZ-6A DEB was lifted into orbit during the mission ‘Long March 6A | Yunhai 3’, on board a Long March 6A space rocket.

The launch took place on Nov. 11, 2022, 10:52 p.m. from Launch Complex 9A.

For more information about the launch, click the button.

Launch to space Long March 6A | Yunhai 3
Long March 6A | Yunhai 3

Agency: N/A

Status: Launch Successful

Launch date: Nov. 11, 2022, 10:52 p.m. UTC

Rocket: Long March 6A

Launch pad: Launch Complex 9A

Location: Taiyuan Satellite Launch Center, People's Republic of China

...

Latest news about this satellite

There are no fresh news available about this satellite. Check back as we update our databases every day.


Newsletter sign-up

Weekly statistics, charts and insights to help you stay on top of the space industry.